Weather in Ambrolauri

Georgia     42°31′07″N   43°09′11″E
temp.,
°C
wind,
m/s
gust,
m/s
humid.,
%
clouds,
%
prec.,
mm/h
press.,
hPa
HPBL,
m
25 may, wed
wed2501:00+5wsw2499100 0.7 1017265
04:00+5w139994 1.4 1018173
07:00+4nw129795 0.8 1019330
10:00+5wsw129388 1.0 1020313
13:00+7wsw238579 0.2 1020606
16:00+10wsw337443 1.2 10191072
19:00+8wsw228722 0.9 1020488
22:00+4nnw119716 1.1 102411
26 may, thu
thu2601:00+3ne119713 0.0 102514
04:00+3ne219612 0.0 102417
07:00+5ne239253 0.0 102469
10:00+13sse11515 0.0 10211280
13:00+16ssw33354 0.0 10202106
16:00+17sw33306 0.0 10192089
19:00+13sw23523 0.0 1020111
22:00+5ne22691 0.0 102314
27 may, fri
fri2701:00+4ne32739 0.0 102337
04:00+4ne33665 0.0 102442
07:00+6ne23585 0.0 102369
10:00+15s11290 0.0 10201085
13:00+18sw33250 0.0 10191874
16:00+19sw33280 0.0 10181790
19:00+15sw23540 0.0 1019135
22:00+7ne22730 0.0 102215
28 may, sat
sat2801:00+6ne32700 0.0 102237
04:00+7ne33630 0.0 102144
07:00+9ne34620 0.0 101981
10:00+19ese23400 0.0 1016959
13:00+22se23340 0.0 10141577
16:00+23se32350 0.0 10131619
19:00+19se23632 0.0 101498
22:00+12ne33826 0.1 101743
29 may, sun
sun2901:00+11ne34812 0.0 101760
04:00+11ne3377100 0.0 101759
07:00+13ene237376 0.1 101676
10:00+20se224955 0.1 1014742
13:00+25s22401 0.0 10131419
16:00+25ssw43394 0.0 10132011
19:00+20ssw127445 0.3 101556
22:00+13ene2296100 2.2 101921